This demonstration page uses our WeatherBlox Daily Observations layout. Learn more.

Left ArrowRight Arrow

38.20091, -84.87328

Hourly Observations for July 27, 2015

Temp ( °F °C ) Dew Point ( °F °C ) Humidity (%) Winds ( mph kmh ) Pressure ( in mb ) Visibility ( mi km ) Precip ( " mm )
12:53 am 00:53 Clear 77 25 72 22.2 85 85 Calm 29.93 1014 8 13 0.00 0.00
1:53 am 01:53 Mostly Clear 76 24.4 72 22.2 88 88 Calm 29.92 1013 7 11 0.00 0.00
2:53 am 02:53 Mostly Cloudy 76 24.4 72 22.2 88 88 Calm 29.92 1013 8 13 0.00 0.00
3:53 am 03:53 Partly Cloudy 75 23.9 72 22.2 90 90 Calm 29.93 1014 7 11 0.00 0.00
4:53 am 04:53 Mostly Clear with Mist and Fog 76 24.4 72 22.2 88 88 ESE 3 6 29.91 1013 6 10 0.00 0.00
5:53 am 05:53 Partly Cloudy with Mist and Fog 75 23.9 72 22.2 90 90 W 3 6 29.93 1014 6 10 0.00 0.00
6:25 am 06:25 Cloudy with Mist and Fog 74 23.3 72 22.2 94 94 Calm 29.94 1014 5 8 0.00 0.00
6:48 am 06:48 Partly Cloudy with Mist and Fog 73 23 72 22 94 94 Calm 29.94 1014 5 8 0.00 0.00
6:53 am 06:53 Partly Cloudy with Mist and Fog 74 23.3 71 21.7 91 91 Calm 29.95 1014 4 6 0.00 0.00
7:11 am 07:11 Mostly Cloudy with Mist and Fog 73 22.8 71 21.7 94 94 SW 3 6 29.94 1014 4 6 0.00 0.00
7:36 am 07:36 Partly Cloudy with Mist and Fog 74 23.3 71 21.7 91 91 WSW 3 6 29.94 1014 4 6 0.00 0.00
7:53 am 07:53 Sunny with Mist and Fog 75 23.9 72 22.2 90 90 Calm 29.94 1014 4 6 0.00 0.00
8:53 am 08:53 Hazy 79 26.1 73 22.8 82 82 NW 5 7 29.96 1015 6 10 0.00 0.00
9:53 am 09:53 Mostly Cloudy 81 27.2 71 21.7 72 72 WNW 5 7 29.97 1015 10 16 0.00 0.00
10:53 am 10:53 Mostly Cloudy 82 27.8 71 21.7 69 69 Calm 29.98 1015 10 16 0.00 0.00
11:53 am 11:53 Mostly Cloudy 85 29.4 71 21.7 63 63 WNW 6 9 29.98 1015 10 16 0.00 0.00
12:13 pm 12:13 Mostly Cloudy with Heavy Rain 75 23.9 69 20.6 82 82 W 8 13 30.00 1016 2 3 0.06 1.52
12:25 pm 12:25 Cloudy with Light Rain 74 23.3 70 21.1 88 88 Calm 29.97 1015 3 5 0.08 2.03
12:53 pm 12:53 Partly Cloudy 77 25 72 22.2 85 85 SSW 6 9 29.98 1015 10 16 0.08 2.03
1:53 pm 13:53 Sunny 83 28.3 75 23.9 77 77 SW 9 15 29.96 1015 10 16 0.00 0.00
2:53 pm 14:53 Sunny 85 29.4 72 22.2 65 65 WSW 8 13 29.94 1014 10 16 0.00 0.00
3:53 pm 15:53 Sunny 86 30 71 21.7 61 61 WSW 7 11 29.94 1014 10 16 0.00 0.00
4:53 pm 16:53 Mostly Sunny 86 30 72 22.2 63 63 W 7 11 29.92 1013 10 16 0.00 0.00
5:53 pm 17:53 Sunny 87 30.6 71 21.7 59 59 VRB 6 9 29.91 1013 10 16 0.00 0.00
6:53 pm 18:53 Sunny 85 29.4 71 21.7 63 63 WSW 5 7 29.91 1013 10 16 0.00 0.00
7:53 pm 19:53 Sunny 85 29.4 72 22.2 65 65 Calm 29.91 1013 10 16 0.00 0.00
8:53 pm 20:53 Sunny 81 27.2 73 22.8 77 77 W 3 6 29.93 1013 9 14 0.00 0.00
9:53 pm 21:53 Clear 78 25.6 73 22.8 85 85 Calm 29.94 1014 8 13 0.00 0.00
10:53 pm 22:53 Clear 78 25.6 73 22.8 85 85 Calm 29.96 1015 8 13 0.00 0.00
11:53 pm 23:53 Clear with Mist and Fog 76 24.4 73 22.8 91 91 Calm 29.97 1015 6 10 0.00 0.00

Powered by AerisWeather